Time,TemperatureF,DewpointF,PressureIn,WindDirection,WindDirectionDegrees,WindSpeedMPH,WindSpeedGustMPH,Humidity,HourlyPrecipIn,Conditions,Clouds,dailyrainin,SolarRadiationWatts/m^2,SoftwareType,DateUTC
2013-07-30 00:03:00,66.0,58.0,30.12,WNW,299,0.0,0.0,75,0.00,,,0.04,0.000000,,2013-07-30 04:03:00,
2013-07-30 00:23:00,65.0,58.0,30.13,WNW,299,0.0,0.0,77,0.00,,,0.04,0.000000,,2013-07-30 04:23:00,
2013-07-30 00:33:00,65.0,58.0,30.13,WNW,299,0.0,0.0,78,0.00,,,0.04,0.000000,,2013-07-30 04:33:00,
2013-07-30 00:43:00,64.0,58.0,30.13,WNW,299,0.0,1.0,81,0.00,,,0.04,0.000000,,2013-07-30 04:43:00,
2013-07-30 01:03:00,63.0,58.0,30.13,WNW,299,0.0,0.0,83,0.00,,,0.01,0.000000,,2013-07-30 05:03:00,
2013-07-30 01:13:00,63.0,58.0,30.13,WNW,299,0.0,0.0,84,0.00,,,0.00,0.000000,,2013-07-30 05:13:00,
2013-07-30 01:23:00,63.0,58.0,30.13,WNW,299,0.0,0.0,84,0.00,,,0.00,0.000000,,2013-07-30 05:23:00,
2013-07-30 01:33:00,63.0,58.0,30.13,WNW,299,0.0,0.0,84,0.00,,,0.00,0.000000,,2013-07-30 05:33:00,
2013-07-30 01:45:00,63.0,58.0,30.13,WNW,298,0.0,2.0,83,0.00,,,0.00,0.000000,,2013-07-30 05:45:00,
2013-07-30 02:03:00,62.0,57.0,30.13,WNW,298,0.0,0.0,84,0.00,,,0.00,0.000000,,2013-07-30 06:03:00,
2013-07-30 02:13:00,62.0,58.0,30.13,WNW,298,0.0,0.0,86,0.00,,,0.00,0.000000,,2013-07-30 06:13:00,
2013-07-30 02:23:00,62.0,58.0,30.13,WNW,298,0.0,0.0,86,0.00,,,0.00,0.000000,,2013-07-30 06:23:00,
2013-07-30 02:43:00,61.0,57.0,30.13,West,259,0.0,2.0,88,0.00,,,0.00,0.000000,,2013-07-30 06:43:00,
2013-07-30 02:53:00,61.0,57.0,30.13,West,259,0.0,2.0,88,0.00,,,0.00,0.000000,,2013-07-30 06:53:00,
2013-07-30 03:03:00,61.0,57.0,30.13,South,187,0.0,0.0,88,0.00,,,0.00,0.000000,,2013-07-30 07:03:00,
2013-07-30 03:13:00,61.0,57.0,30.13,South,187,0.0,0.0,88,0.00,,,0.00,0.000000,,2013-07-30 07:13:00,
2013-07-30 03:23:00,61.0,58.0,30.13,South,187,0.0,2.0,89,0.00,,,0.00,0.000000,,2013-07-30 07:23:00,
2013-07-30 03:33:00,61.0,58.0,30.13,South,187,0.0,1.0,89,0.00,,,0.00,0.000000,,2013-07-30 07:33:00,
2013-07-30 03:43:00,61.0,58.0,30.13,South,187,0.0,1.0,89,0.00,,,0.00,0.000000,,2013-07-30 07:43:00,
2013-07-30 03:53:00,61.0,58.0,30.13,South,187,0.0,0.0,89,0.00,,,0.00,0.000000,,2013-07-30 07:53:00,
2013-07-30 04:03:00,61.0,58.0,30.13,South,187,0.0,0.0,89,0.00,,,0.00,0.000000,,2013-07-30 08:03:00,
2013-07-30 04:13:00,61.0,58.0,30.13,South,187,0.0,0.0,89,0.00,,,0.00,0.000000,,2013-07-30 08:13:00,
2013-07-30 04:33:00,60.0,57.0,30.13,SSW,198,0.0,1.0,90,0.00,,,0.00,0.000000,,2013-07-30 08:33:00,
2013-07-30 04:43:00,60.0,57.0,30.13,SSW,198,0.0,2.0,90,0.00,,,0.00,0.000000,,2013-07-30 08:43:00,
2013-07-30 04:53:00,60.0,57.0,30.14,SSW,198,0.0,2.0,90,0.00,,,0.00,0.000000,,2013-07-30 08:53:00,
2013-07-30 05:03:00,60.0,57.0,30.14,SW,219,0.0,2.0,90,0.00,,,0.00,0.000000,,2013-07-30 09:03:00,
2013-07-30 05:13:00,60.0,57.0,30.14,SW,219,0.0,2.0,90,0.00,,,0.00,0.000000,,2013-07-30 09:13:00,
2013-07-30 05:23:00,60.0,57.0,30.14,South,188,0.0,2.0,90,0.00,,,0.00,0.000000,,2013-07-30 09:23:00,
2013-07-30 05:33:00,60.0,57.0,30.14,South,188,0.0,1.0,89,0.00,,,0.00,0.000000,,2013-07-30 09:33:00,
2013-07-30 05:53:00,60.0,57.0,30.15,South,188,0.0,3.0,90,0.00,,,0.00,0.000000,,2013-07-30 09:53:00,
2013-07-30 07:02:00,62.0,58.0,30.17,South,188,0.0,0.0,86,0.00,,,0.00,77.000000,,2013-07-30 11:02:00,
2013-07-30 07:22:00,63.0,58.0,30.17,South,188,0.0,0.0,83,0.00,,,0.00,113.000000,,2013-07-30 11:22:00,
2013-07-30 07:43:00,63.0,57.0,30.18,South,188,0.0,1.0,82,0.00,,,0.00,142.000000,,2013-07-30 11:43:00,
2013-07-30 07:53:00,64.0,59.0,30.19,South,188,1.0,3.0,83,0.00,,,0.00,162.000000,,2013-07-30 11:53:00,
2013-07-30 08:12:00,64.0,59.0,30.19,SSW,192,1.0,3.0,85,0.00,,,0.00,214.000000,,2013-07-30 12:12:00,
2013-07-30 08:33:00,65.0,60.0,30.19,SSW,196,1.0,3.0,83,0.00,,,0.00,278.000000,,2013-07-30 12:33:00,
2013-07-30 08:42:00,66.0,61.0,30.20,SSW,194,1.0,3.0,83,0.00,,,0.00,315.000000,,2013-07-30 12:42:00,
2013-07-30 08:53:00,67.0,61.0,30.20,SSW,197,1.0,5.0,82,0.00,,,0.00,309.000000,,2013-07-30 12:53:00,
2013-07-30 09:43:00,70.0,62.0,30.20,West,278,2.0,6.0,76,0.00,,,0.00,438.000000,,2013-07-30 13:43:00,
2013-07-30 10:03:00,70.0,59.0,30.19,NW,305,3.0,8.0,69,0.00,,,0.00,454.000000,,2013-07-30 14:03:00,
2013-07-30 10:12:00,71.0,59.0,30.19,NW,310,5.0,7.0,66,0.00,,,0.00,476.000000,,2013-07-30 14:12:00,
2013-07-30 10:22:00,71.0,62.0,30.19,NW,322,6.0,9.0,72,0.00,,,0.00,513.000000,,2013-07-30 14:22:00,
2013-07-30 10:33:00,72.0,61.0,30.19,NW,308,6.0,9.0,68,0.00,,,0.00,557.000000,,2013-07-30 14:33:00,
2013-07-30 10:53:00,72.0,60.0,30.19,WNW,295,5.0,9.0,67,0.00,,,0.00,656.000000,,2013-07-30 14:53:00,
2013-07-30 11:02:00,74.0,61.0,30.19,WNW,299,5.0,9.0,65,0.00,,,0.00,694.000000,,2013-07-30 15:02:00,
2013-07-30 11:33:00,74.0,61.0,30.19,NW,318,6.0,9.0,64,0.00,,,0.00,765.000000,,2013-07-30 15:33:00,
2013-07-30 11:43:00,75.0,60.0,30.19,NNW,331,6.0,9.0,59,0.00,,,0.00,810.000000,,2013-07-30 15:43:00,
2013-07-30 11:53:00,75.0,60.0,30.19,NNW,331,6.0,9.0,59,0.00,,,0.00,810.000000,,2013-07-30 15:53:00,
2013-07-30 12:02:00,76.0,62.0,30.19,WSW,250,3.0,8.0,61,0.00,,,0.00,814.000000,,2013-07-30 16:02:00,
2013-07-30 12:12:00,76.0,62.0,30.19,West,277,4.0,7.0,61,0.00,,,0.00,851.000000,,2013-07-30 16:12:00,
2013-07-30 12:23:00,76.0,60.0,30.18,NW,305,7.0,12.0,58,0.00,,,0.00,868.000000,,2013-07-30 16:23:00,
2013-07-30 12:33:00,76.0,62.0,30.18,NW,320,5.0,12.0,62,0.00,,,0.00,904.000000,,2013-07-30 16:33:00,
2013-07-30 12:44:00,77.0,60.0,30.17,NW,317,6.0,9.0,55,0.00,,,0.00,956.000000,,2013-07-30 16:44:00,
2013-07-30 12:52:00,77.0,60.0,30.17,NW,317,6.0,9.0,55,0.00,,,0.00,956.000000,,2013-07-30 16:52:00,
2013-07-30 13:02:00,77.0,62.0,30.17,NW,316,5.0,12.0,60,0.00,,,0.00,1005.000000,,2013-07-30 17:02:00,
2013-07-30 13:32:00,76.0,60.0,30.17,WNW,297,9.0,13.0,57,0.00,,,0.00,237.000000,,2013-07-30 17:32:00,
2013-07-30 13:53:00,77.0,60.0,30.17,WNW,302,5.0,12.0,56,0.00,,,0.00,997.000000,,2013-07-30 17:53:00,
2013-07-30 14:03:00,78.0,61.0,30.16,NW,310,6.0,13.0,55,0.00,,,0.00,958.000000,,2013-07-30 18:03:00,
2013-07-30 14:12:00,77.0,59.0,30.16,NW,316,5.0,12.0,54,0.00,,,0.00,1000.000000,,2013-07-30 18:12:00,
2013-07-30 14:52:00,78.0,61.0,30.16,West,268,5.0,10.0,55,0.00,,,0.00,863.000000,,2013-07-30 18:52:00,
2013-07-30 15:03:00,78.0,61.0,30.16,West,268,5.0,10.0,55,0.00,,,0.00,863.000000,,2013-07-30 19:03:00,
2013-07-30 15:23:00,78.0,59.0,30.15,NW,322,6.0,10.0,53,0.00,,,0.00,933.000000,,2013-07-30 19:23:00,
2013-07-30 15:44:00,77.0,59.0,30.15,NW,311,3.0,9.0,53,0.00,,,0.00,227.000000,,2013-07-30 19:44:00,
2013-07-30 15:52:00,77.0,59.0,30.15,NW,311,3.0,9.0,53,0.00,,,0.00,227.000000,,2013-07-30 19:52:00,
2013-07-30 16:02:00,80.0,60.0,30.14,West,281,6.0,12.0,51,0.00,,,0.00,835.000000,,2013-07-30 20:02:00,
2013-07-30 16:13:00,80.0,60.0,30.14,West,281,6.0,12.0,51,0.00,,,0.00,835.000000,,2013-07-30 20:13:00,
2013-07-30 16:22:00,79.0,60.0,30.14,WNW,295,6.0,12.0,53,0.00,,,0.00,853.000000,,2013-07-30 20:22:00,
2013-07-30 16:33:00,79.0,59.0,30.14,WNW,297,6.0,9.0,50,0.00,,,0.00,780.000000,,2013-07-30 20:33:00,
2013-07-30 16:43:00,78.0,58.0,30.14,WNW,295,5.0,10.0,51,0.00,,,0.00,199.000000,,2013-07-30 20:43:00,
2013-07-30 16:52:00,78.0,58.0,30.14,WNW,295,5.0,10.0,51,0.00,,,0.00,199.000000,,2013-07-30 20:52:00,
2013-07-30 17:02:00,79.0,60.0,30.14,WNW,282,3.0,10.0,52,0.00,,,0.00,160.000000,,2013-07-30 21:02:00,
2013-07-30 17:12:00,79.0,60.0,30.14,WNW,282,3.0,10.0,52,0.00,,,0.00,160.000000,,2013-07-30 21:12:00,
2013-07-30 17:53:00,77.0,60.0,30.14,NW,310,7.0,10.0,55,0.00,,,0.00,227.000000,,2013-07-30 21:53:00,
2013-07-30 18:02:00,78.0,61.0,30.14,NW,316,5.0,9.0,55,0.00,,,0.00,183.000000,,2013-07-30 22:02:00,
2013-07-30 18:32:00,77.0,60.0,30.14,WNW,297,6.0,12.0,56,0.00,,,0.00,445.000000,,2013-07-30 22:32:00,
2013-07-30 18:52:00,78.0,59.0,30.14,NW,311,5.0,9.0,53,0.00,,,0.00,281.000000,,2013-07-30 22:52:00,
2013-07-30 19:02:00,78.0,59.0,30.14,NW,313,6.0,9.0,52,0.00,,,0.00,241.000000,,2013-07-30 23:02:00,
2013-07-30 19:13:00,78.0,59.0,30.14,NW,307,6.0,8.0,53,0.00,,,0.00,190.000000,,2013-07-30 23:13:00,
2013-07-30 19:23:00,78.0,59.0,30.13,NW,311,6.0,9.0,53,0.00,,,0.00,158.000000,,2013-07-30 23:23:00,
2013-07-30 19:32:00,77.0,60.0,30.14,NW,305,5.0,7.0,56,0.00,,,0.00,39.000000,,2013-07-30 23:32:00,
2013-07-30 19:42:00,76.0,60.0,30.13,NW,314,5.0,6.0,57,0.00,,,0.00,32.000000,,2013-07-30 23:42:00,
2013-07-30 19:53:00,75.0,60.0,30.14,WNW,295,3.0,6.0,59,0.00,,,0.00,26.000000,,2013-07-30 23:53:00,
2013-07-30 20:02:00,75.0,60.0,30.14,NW,304,4.0,5.0,60,0.00,,,0.00,23.000000,,2013-07-31 00:02:00,
2013-07-30 20:12:00,74.0,59.0,30.14,NW,317,3.0,5.0,60,0.00,,,0.00,18.000000,,2013-07-31 00:12:00,
2013-07-30 20:32:00,73.0,60.0,30.14,NW,325,1.0,3.0,63,0.00,,,0.00,0.000000,,2013-07-31 00:32:00,
2013-07-30 20:43:00,72.0,59.0,30.14,NW,325,0.0,2.0,63,0.00,,,0.00,0.000000,,2013-07-31 00:43:00,
2013-07-30 20:53:00,72.0,59.0,30.14,NW,325,0.0,1.0,63,0.00,,,0.00,0.000000,,2013-07-31 00:53:00,
2013-07-30 21:02:00,72.0,59.0,30.14,NW,325,0.0,0.0,64,0.00,,,0.00,0.000000,,2013-07-31 01:02:00,
2013-07-30 21:12:00,72.0,59.0,30.14,NW,325,0.0,0.0,64,0.00,,,0.00,0.000000,,2013-07-31 01:12:00,
2013-07-30 21:32:00,71.0,61.0,30.14,NW,325,0.0,0.0,70,0.00,,,0.00,0.000000,,2013-07-31 01:32:00,
2013-07-30 21:43:00,70.0,60.0,30.14,NW,325,0.0,0.0,70,0.00,,,0.00,0.000000,,2013-07-31 01:43:00,
2013-07-30 21:52:00,70.0,61.0,30.14,NW,325,0.0,0.0,74,0.00,,,0.00,0.000000,,2013-07-31 01:52:00,
2013-07-30 22:12:00,69.0,61.0,30.14,NW,325,0.0,0.0,76,0.00,,,0.00,0.000000,,2013-07-31 02:12:00,
2013-07-30 22:22:00,69.0,61.0,30.14,NW,325,0.0,0.0,76,0.00,,,0.00,0.000000,,2013-07-31 02:22:00,
2013-07-30 22:43:00,68.0,61.0,30.14,NW,325,0.0,0.0,77,0.00,,,0.00,0.000000,,2013-07-31 02:43:00,
2013-07-30 22:52:00,68.0,61.0,30.14,NW,325,0.0,0.0,77,0.00,,,0.00,0.000000,,2013-07-31 02:52:00,
2013-07-30 23:02:00,67.0,60.0,30.14,North,355,0.0,0.0,78,0.00,,,0.00,0.000000,,2013-07-31 03:02:00,
2013-07-30 23:12:00,66.0,59.0,30.14,North,355,0.0,0.0,79,0.00,,,0.00,0.000000,,2013-07-31 03:12:00,
2013-07-30 23:22:00,66.0,60.0,30.14,North,355,0.0,1.0,80,0.00,,,0.00,0.000000,,2013-07-31 03:22:00,
2013-07-30 23:32:00,66.0,60.0,30.14,North,355,0.0,1.0,80,0.00,,,0.00,0.000000,,2013-07-31 03:32:00,
2013-07-30 23:52:00,65.0,59.0,30.13,North,355,0.0,0.0,81,0.00,,,0.00,0.000000,,2013-07-31 03:52:00,